Location: Newark
(43.4545°N, 5.8521°W)
Time: 22:47:09
(UTC+00:00)

ISS - Pass Details

Date: 22 November 2019
Orbit: 411 x 421 km, 51.6° (Epoch: 07 December)

Event Time Altitude Azimuth Distance (km) Brightness Sun altitude
Rises 17:22:39 0° 183° (S) 2,338 0.4 -5.7°
Reaches altitude 10° 17:26:19 10° 141° (SE) 1,487 -1.1 -6.3°
Maximum altitude 17:26:58 10° 129° (SE) 1,463 -1.3 -6.4°
Drops below altitude 10° 17:27:37 10° 118° (ESE) 1,490 -1.3 -6.5°
Enters shadow 17:29:15 - 94° (E) 1,762 -1.2 -6.8°
